Weather observations for the past three days for
New Orleans, New Orleans International Airport
Imperial (Metric)
Date Time (cdt) Wind (mph) Vis. (mi.) Weather Sky Cond. Temperature (ºF) Relative Humidity Wind Chill (°F) Heat Index (°F) Pressure Precipitation (in)
Air Dwpt 6 hour altimeter (in) sea level (mb) 1 hr 3 hr 6 hr
Max. Min.
17 03:53 Calm 10.00 Partly Cloudy SCT020 SCT250 80.1 77 90% 86 29.98 1015.7
17 02:53 Calm 10.00 Partly Cloudy FEW020 SCT250 80.1 77 90% 86 29.99 1015.8
17 01:53 W 3 10.00 A Few Clouds FEW250 80.1 77 90% 86 29.99 1015.9
17 00:53 SW 5 10.00 A Few Clouds FEW250 82 78.1 84.9 80.1 88% 91 29.99 1015.8
16 23:53 S 5 10.00 A Few Clouds FEW250 81 79 94% 89 29.99 1015.9
16 22:53 S 5 10.00 Partly Cloudy SCT250 81 77 88% 88 30 1016.2
16 21:53 SE 6 10.00 Mostly Cloudy BKN250 82.9 77 82% 92 30 1016.2
16 20:53 SE 8 10.00 Mostly Cloudy BKN250 84 75.9 77% 93 30 1016.1
16 19:53 S 6 10.00 Mostly Cloudy FEW030 SCT047 SCT150 BKN250 84 75 74% 92 29.99 1015.7
16 18:53 S 7 10.00 Mostly Cloudy FEW030 SCT047 SCT150 BKN250 84 75.9 91 77 77% 93 29.98 1015.6 0.64
16 17:53 SE 9 10.00 Mostly Cloudy FEW031 SCT047 SCT150 BKN250 86 77 75% 97 29.99 1015.8
16 16:53 SE 7 10.00 Mostly Cloudy FEW031 SCT047 SCT070 SCT150 BKN250 90 75 62% 100 29.99 1015.9
16 15:53 W 7 10.00 Mostly Cloudy FEW031 SCT047 SCT070 SCT150 BKN250 89.1 78.1 70% 103 30 1016.2 0.64
16 14:53 Calm 10.00 Mostly Cloudy FEW031 SCT047 BKN070 81 75.9 85% 87 30.02 1016.7 0.04
16 13:53 N 10 4.00 Thunderstorm Heavy Rain Fog/Mist BKN031CB BKN070 BKN095 BKN250 78.1 75 90% 81 30.04 1017.6 0.6
16 12:53 SE 8 10.00 Mostly Cloudy SCT035TCU SCT150 BKN250 91.9 75.9 93 79 60% 104 30.02 1016.9
16 11:53 SW 8 10.00 Mostly Cloudy FEW035 SCT050 SCT070 BKN150 BKN250 91 75.9 61% 103 30.04 1017.4
16 10:53 Vrbl 6 10.00 Mostly Cloudy SCT030 BKN250 91 75.9 61% 103 30.03 1017.4
16 08:53 W 5 10.00 Partly Cloudy FEW025 FEW150 SCT250 87.1 78.1 75% 100 30.04 1017.5
16 07:53 SW 5 10.00 Partly Cloudy FEW025 FEW150 SCT250 84 79 85% 96 30.03 1017.3
16 06:53 SW 3 10.00 Partly Cloudy FEW020 FEW150 SCT250 80.1 78.1 82 79 94% 86 30.02 1016.8
16 05:53 S 3 10.00 Partly Cloudy FEW020 FEW150 SCT250 80.1 77 90% 86 30.01 1016.6
16 04:53 Calm 10.00 A Few Clouds FEW020 FEW250 80.1 77 90% 86 30.01 1016.6
16 03:53 Calm 10.00 A Few Clouds FEW020 FEW250 80.1 77 90% 86 30 1016.3
16 02:53 SW 3 10.00 Fair CLR 81 77 88% 88 30.01 1016.3
16 01:53 Calm 10.00 A Few Clouds FEW250 80.1 77 90% 86 30.01 1016.5
16 00:53 S 6 10.00 A Few Clouds FEW250 82 77 86 81 85% 90 30.01 1016.6
15 23:53 S 6 10.00 A Few Clouds FEW250 82 78.1 88% 91 30.01 1016.7
15 21:53 S 3 10.00 Mostly Cloudy SCT110 BKN250 82 77 85% 90 29.99 1015.9
15 20:53 S 6 10.00 Mostly Cloudy FEW034 SCT110 BKN250 82.9 75.9 79% 91 29.99 1015.8
15 19:53 SW 5 10.00 Mostly Cloudy FEW034 SCT110 BKN250 84 75.9 77% 93 30 1016.1
15 18:53 SW 7 10.00 Mostly Cloudy FEW030 FEW130 BKN250 86 75.9 90 82.9 72% 96 29.99 1016.0
15 17:53 SW 6 10.00 Mostly Cloudy FEW035 SCT050 SCT100 BKN250 82.9 75.9 79% 91 30 1016.2
15 16:53 SW 9 10.00 Mostly Cloudy FEW035 FEW050 BKN250 86 79 80% 100 29.98 1015.6
15 15:53 S 6 10.00 Mostly Cloudy FEW050 FEW075 BKN250 86 78.1 77% 98 30.02 1016.7
15 14:53 SW 8 10.00 Mostly Cloudy FEW050 FEW075 FEW095 BKN250 87.1 78.1 75% 100 30.05 1017.8
15 13:53 NW 6 10.00 Mostly Cloudy FEW050 FEW075 FEW095 BKN250 89.1 75.9 65% 100 30.06 1018.2
15 12:53 Vrbl 3 10.00 Thunderstorm FEW030CB SCT090 SCT110 BKN250 89.1 75 91 80.1 63% 99 30.08 1019.0
15 11:53 Calm 10.00 Mostly Cloudy FEW027 FEW040 SCT100 BKN250 90 75.9 63% 102 30.1 1019.5
15 10:53 Vrbl 3 10.00 Mostly Cloudy SCT022CB SCT070 SCT150 BKN250 88 77 70% 100 30.1 1019.6
15 09:53 NW 8 10.00 Partly Cloudy FEW025CB FEW150 SCT250 88 77 70% 100 30.11 1019.8
15 08:53 NW 7 10.00 Mostly Cloudy SCT025 SCT150 BKN250 86 80.1 83% 101 30.11 1020.0
15 07:53 NW 3 6.00 A Few Clouds with Haze FEW025 FEW150 FEW250 84 78.1 82% 95 30.1 1019.7
15 06:53 Calm 10.00 A Few Clouds FEW025 FEW150 FEW250 80.1 78.1 82 79 94% 86 30.08 1018.8
15 05:53 W 3 10.00 Partly Cloudy FEW025 SCT250 80.1 78.1 94% 86 30.06 1018.1
15 04:53 W 5 10.00 Partly Cloudy FEW030 SCT250 79 79 100% 84 30.04 1017.6
15 03:53 SW 5 10.00 A Few Clouds FEW040 FEW250 80.1 79 97% 87 30.03 1017.1
15 01:53 W 5 10.00 Fair CLR 80.1 79 97% 87 30.07 1018.4
15 00:53 Calm 10.00 Partly Cloudy SCT049 82 79 89.1 81 90% 92 30.08 1018.9
14 23:53 SW 3 10.00 Partly Cloudy FEW030 SCT250 82.9 79 88% 94 30.1 1019.5
14 22:53 Calm 10.00 Partly Cloudy FEW040 SCT250 84 80.1 88% 97 30.1 1019.6
14 21:53 SW 7 10.00 Partly Cloudy FEW040 SCT250 82.9 79 88% 94 30.07 1018.6
14 20:53 SW 5 10.00 Mostly Cloudy FEW050 BKN250 84 79 85% 96 30.08 1018.8
14 19:53 SW 6 10.00 Mostly Cloudy FEW055 BKN250 86 78.1 77% 98 30.06 1018.3
14 18:53 SW 7 10.00 Mostly Cloudy FEW055 BKN250 89.1 78.1 95 89.1 70% 103 30.06 1018.1
14 17:53 Calm 10.00 Mostly Cloudy FEW050 FEW110 BKN250 91.9 75.9 60% 104 30.04 1017.6
14 16:53 W 3 10.00 Mostly Cloudy FEW045 BKN250 93.9 75 54% 106 30.06 1018.2
14 15:53 Calm 10.00 Mostly Cloudy FEW045 BKN250 95 73.9 51% 106 30.08 1018.8
14 14:53 W 6 10.00 Partly Cloudy FEW045 SCT250 95 73 49% 105 30.09 1019.2
14 13:53 N 5 10.00 Mostly Cloudy FEW042 BKN250 93 72 50% 101 30.11 1020.1
14 12:53 Vrbl 7 10.00 Partly Cloudy FEW030 SCT250 91.9 75.9 91.9 79 60% 104 30.13 1020.7
14 11:53 NW 7 10.00 Partly Cloudy FEW030 SCT250 91 75.9 61% 103 30.17 1021.8
14 10:53 N 8 10.00 Partly Cloudy FEW030 SCT250 89.1 77 68% 102 30.17 1021.9
14 09:53 NW 9 10.00 A Few Clouds FEW030 FEW180 FEW250 87.1 77 72% 99 30.17 1021.9
14 08:53 NW 9 10.00 A Few Clouds FEW030 FEW180 FEW250 84.9 75.9 75% 94 30.16 1021.7
14 07:53 NW 3 10.00 A Few Clouds FEW030 FEW180 FEW250 82.9 79 88% 94 30.16 1021.6
14 06:53 NW 5 10.00 A Few Clouds FEW030 FEW150 FEW250 79 75.9 81 77 90% 83 30.14 1021.0
14 05:53 W 3 10.00 A Few Clouds FEW030 FEW250 78.1 75.9 93% 81 30.13 1020.6
14 04:53 W 3 10.00 Fair CLR 79 75.9 90% 83 30.12 1020.2
Date Time (cdt) Wind (mph) Vis. (mi.) Weather Sky Cond. Air Dwpt Max. Min. Relative Humidity Wind Chill (°F) Heat Index (°F) altimeter (in) sea level (mb) 1 hr 3 hr 6 hr
6 hour
Temperature (ºF) Pressure Precipitation (in)